Time,TemperatureF,DewpointF,PressureIn,WindDirection,WindDirectionDegrees,WindSpeedMPH,WindSpeedGustMPH,Humidity,HourlyPrecipIn,Conditions,Clouds,dailyrainin,SoftwareType,DateUTC
2013-09-13 00:10:00,57.3,57.0,29.77,NW,310,5.0,10.0,97,0.00,,,0.00,weatherlink.com 1.10,2013-09-13 04:10:00,
2013-09-13 00:25:00,57.3,57.0,29.77,WNW,286,3.0,12.0,98,0.00,,,0.00,weatherlink.com 1.10,2013-09-13 04:25:00,
2013-09-13 00:40:00,57.2,57.0,29.77,East,100,1.0,10.0,98,0.00,,,0.00,weatherlink.com 1.10,2013-09-13 04:40:00,
2013-09-13 00:55:00,57.1,57.0,29.75,West,259,13.0,13.0,98,0.00,,,0.00,weatherlink.com 1.10,2013-09-13 04:55:00,
2013-09-13 01:10:00,57.3,57.0,29.75,WNW,290,5.0,18.0,98,0.00,,,0.00,weatherlink.com 1.10,2013-09-13 05:10:00,
2013-09-13 01:25:00,57.3,57.0,29.74,NNW,346,3.0,15.0,99,0.00,,,0.00,weatherlink.com 1.10,2013-09-13 05:25:00,
2013-09-13 01:40:00,57.3,57.0,29.74,West,265,0.0,11.0,99,0.00,,,0.00,weatherlink.com 1.10,2013-09-13 05:40:00,
2013-09-13 01:55:00,57.4,57.0,29.74,NW,307,5.0,13.0,99,0.00,,,0.00,weatherlink.com 1.10,2013-09-13 05:55:00,
2013-09-13 02:10:00,57.3,57.0,29.74,West,275,5.0,9.0,99,0.00,,,0.00,weatherlink.com 1.10,2013-09-13 06:10:00,
2013-09-13 02:25:00,57.1,57.0,29.74,WNW,296,1.0,12.0,99,0.00,,,0.00,weatherlink.com 1.10,2013-09-13 06:25:00,
2013-09-13 02:40:00,57.0,57.0,29.74,WSW,258,5.0,15.0,99,0.00,,,0.00,weatherlink.com 1.10,2013-09-13 06:40:00,
2013-09-13 02:55:00,56.8,57.0,29.73,NW,304,9.0,18.0,99,0.00,,,0.00,weatherlink.com 1.10,2013-09-13 06:55:00,
2013-09-13 03:10:00,56.0,56.0,29.73,WNW,294,8.0,22.0,99,0.00,,,0.00,weatherlink.com 1.10,2013-09-13 07:10:00,
2013-09-13 03:25:00,55.3,55.0,29.73,NW,311,11.0,14.0,99,0.00,,,0.00,weatherlink.com 1.10,2013-09-13 07:25:00,
2013-09-13 03:40:00,55.1,55.0,29.73,NW,315,13.0,17.0,99,0.00,,,0.00,weatherlink.com 1.10,2013-09-13 07:40:00,
2013-09-13 03:55:00,54.9,55.0,29.72,WNW,303,11.0,15.0,99,0.00,,,0.00,weatherlink.com 1.10,2013-09-13 07:55:00,
2013-09-13 04:10:00,54.9,55.0,29.72,NW,317,5.0,14.0,99,0.00,,,0.00,weatherlink.com 1.10,2013-09-13 08:10:00,
2013-09-13 04:25:00,54.9,55.0,29.72,WNW,302,14.0,17.0,99,0.00,,,0.00,weatherlink.com 1.10,2013-09-13 08:25:00,
2013-09-13 04:40:00,54.5,54.0,29.72,NW,320,13.0,21.0,99,0.00,,,0.00,weatherlink.com 1.10,2013-09-13 08:40:00,
2013-09-13 04:55:00,54.3,54.0,29.71,NW,319,11.0,20.0,99,0.00,,,0.00,weatherlink.com 1.10,2013-09-13 08:55:00,
2013-09-13 05:10:00,53.6,53.0,29.72,NNW,329,7.0,17.0,99,0.00,,,0.00,weatherlink.com 1.10,2013-09-13 09:10:00,
2013-09-13 05:25:00,53.6,53.0,29.72,WNW,286,6.0,19.0,99,0.00,,,0.00,weatherlink.com 1.10,2013-09-13 09:25:00,
2013-09-13 05:40:00,53.2,53.0,29.72,NW,309,13.0,17.0,99,0.00,,,0.00,weatherlink.com 1.10,2013-09-13 09:40:00,
2013-09-13 05:55:00,53.0,53.0,29.72,NW,313,10.0,16.0,99,0.00,,,0.00,weatherlink.com 1.10,2013-09-13 09:55:00,
2013-09-13 06:10:00,53.0,53.0,29.72,ENE,78,5.0,14.0,99,0.00,,,0.00,weatherlink.com 1.10,2013-09-13 10:10:00,
2013-09-13 06:25:00,53.0,53.0,29.73,SSW,205,2.0,15.0,99,0.00,,,0.00,weatherlink.com 1.10,2013-09-13 10:25:00,
2013-09-13 06:40:00,53.0,53.0,29.72,NW,322,9.0,15.0,99,0.00,,,0.00,weatherlink.com 1.10,2013-09-13 10:40:00,
2013-09-13 06:55:00,53.2,53.0,29.72,NW,321,10.0,17.0,99,0.00,,,0.00,weatherlink.com 1.10,2013-09-13 10:55:00,
2013-09-13 07:10:00,52.5,52.0,29.71,WNW,291,11.0,25.0,99,0.00,,,0.00,weatherlink.com 1.10,2013-09-13 11:10:00,
2013-09-13 07:25:00,52.5,52.0,29.72,NW,312,17.0,22.0,99,0.00,,,0.00,weatherlink.com 1.10,2013-09-13 11:25:00,
2013-09-13 07:40:00,52.5,52.0,29.73,West,275,14.0,22.0,99,0.00,,,0.00,weatherlink.com 1.10,2013-09-13 11:40:00,
2013-09-13 07:55:00,52.6,52.0,29.74,NNW,331,12.0,25.0,99,0.00,,,0.00,weatherlink.com 1.10,2013-09-13 11:55:00,
2013-09-13 08:10:00,52.8,53.0,29.74,NW,323,8.0,21.0,99,0.00,,,0.00,weatherlink.com 1.10,2013-09-13 12:10:00,
2013-09-13 08:25:00,52.8,53.0,29.75,NW,305,7.0,15.0,99,0.00,,,0.00,weatherlink.com 1.10,2013-09-13 12:25:00,
2013-09-13 08:40:00,53.0,53.0,29.75,WNW,290,6.0,17.0,99,0.00,,,0.00,weatherlink.com 1.10,2013-09-13 12:40:00,
2013-09-13 08:55:00,52.7,53.0,29.74,WNW,296,10.0,17.0,99,0.00,,,0.00,weatherlink.com 1.10,2013-09-13 12:55:00,
2013-09-13 09:10:00,53.2,53.0,29.74,WSW,245,7.0,17.0,99,0.00,,,0.00,weatherlink.com 1.10,2013-09-13 13:10:00,
2013-09-13 09:26:00,53.4,53.0,29.74,NW,322,9.0,16.0,99,0.00,,,0.00,weatherlink.com 1.10,2013-09-13 13:26:00,
2013-09-13 09:41:00,53.6,53.0,29.75,NW,310,8.0,21.0,98,0.00,,,0.00,weatherlink.com 1.10,2013-09-13 13:41:00,
2013-09-13 09:56:00,53.8,53.0,29.75,WNW,295,10.0,18.0,98,0.00,,,0.00,weatherlink.com 1.10,2013-09-13 13:56:00,
2013-09-13 10:11:00,53.6,53.0,29.75,West,271,8.0,19.0,98,0.00,,,0.00,weatherlink.com 1.10,2013-09-13 14:11:00,
2013-09-13 10:26:00,53.8,53.0,29.75,NNW,331,8.0,17.0,98,0.00,,,0.00,weatherlink.com 1.10,2013-09-13 14:26:00,
2013-09-13 10:41:00,54.1,53.0,29.76,WSW,247,6.0,19.0,97,0.00,,,0.00,weatherlink.com 1.10,2013-09-13 14:41:00,
2013-09-13 10:56:00,54.2,53.0,29.76,WSW,251,13.0,20.0,96,0.00,,,0.00,weatherlink.com 1.10,2013-09-13 14:56:00,
2013-09-13 11:11:00,54.6,53.0,29.76,NW,319,5.0,19.0,95,0.00,,,0.00,weatherlink.com 1.10,2013-09-13 15:11:00,
2013-09-13 11:26:00,55.4,54.0,29.76,West,276,7.0,15.0,95,0.00,,,0.00,weatherlink.com 1.10,2013-09-13 15:26:00,
2013-09-13 11:41:00,55.2,53.0,29.76,NW,324,7.0,11.0,93,0.00,,,0.00,weatherlink.com 1.10,2013-09-13 15:41:00,
2013-09-13 11:56:00,55.9,54.0,29.77,West,275,3.0,11.0,93,0.00,,,0.00,weatherlink.com 1.10,2013-09-13 15:56:00,
2013-09-13 12:11:00,56.0,53.0,29.76,WNW,296,2.0,15.0,90,0.00,,,0.00,weatherlink.com 1.10,2013-09-13 16:11:00,
2013-09-13 12:26:00,54.9,53.0,29.77,WSW,257,3.0,13.0,92,0.00,,,0.00,weatherlink.com 1.10,2013-09-13 16:26:00,
2013-09-13 12:41:00,56.1,52.0,29.77,NW,325,7.0,15.0,87,0.00,,,0.00,weatherlink.com 1.10,2013-09-13 16:41:00,
2013-09-13 12:56:00,56.6,52.0,29.77,North,355,3.0,14.0,85,0.00,,,0.00,weatherlink.com 1.10,2013-09-13 16:56:00,
2013-09-13 13:11:00,55.1,52.0,29.77,NW,304,5.0,16.0,90,0.00,,,0.00,weatherlink.com 1.10,2013-09-13 17:11:00,
2013-09-13 13:26:00,55.3,52.0,29.77,WNW,282,8.0,14.0,89,0.00,,,0.00,weatherlink.com 1.10,2013-09-13 17:26:00,
2013-09-13 13:41:00,57.0,52.0,29.77,NNW,327,7.0,11.0,84,0.00,,,0.00,weatherlink.com 1.10,2013-09-13 17:41:00,
2013-09-13 13:56:00,56.1,51.0,29.77,WSW,254,7.0,13.0,83,0.00,,,0.00,weatherlink.com 1.10,2013-09-13 17:56:00,
2013-09-13 14:11:00,56.9,50.0,29.76,North,11,6.0,14.0,79,0.00,,,0.00,weatherlink.com 1.10,2013-09-13 18:11:00,
2013-09-13 14:26:00,57.8,50.0,29.77,West,278,5.0,15.0,76,0.00,,,0.00,weatherlink.com 1.10,2013-09-13 18:26:00,
2013-09-13 14:41:00,57.0,51.0,29.77,NW,317,6.0,13.0,81,0.00,,,0.00,weatherlink.com 1.10,2013-09-13 18:41:00,
2013-09-13 14:56:00,57.8,50.0,29.77,NNW,346,6.0,11.0,76,0.00,,,0.00,weatherlink.com 1.10,2013-09-13 18:56:00,
2013-09-13 15:11:00,57.1,49.0,29.76,West,271,9.0,16.0,74,0.00,,,0.00,weatherlink.com 1.10,2013-09-13 19:11:00,
2013-09-13 15:26:00,57.1,48.0,29.77,West,276,12.0,17.0,72,0.00,,,0.00,weatherlink.com 1.10,2013-09-13 19:26:00,
2013-09-13 15:41:00,56.1,49.0,29.77,West,265,7.0,14.0,76,0.00,,,0.00,weatherlink.com 1.10,2013-09-13 19:41:00,
2013-09-13 15:56:00,56.0,50.0,29.77,WSW,250,3.0,12.0,79,0.00,,,0.00,weatherlink.com 1.10,2013-09-13 19:56:00,
2013-09-13 16:11:00,56.4,49.0,29.77,SSW,209,6.0,12.0,75,0.00,,,0.00,weatherlink.com 1.10,2013-09-13 20:11:00,
2013-09-13 16:26:00,56.8,48.0,29.77,WNW,291,8.0,12.0,73,0.00,,,0.00,weatherlink.com 1.10,2013-09-13 20:26:00,
2013-09-13 16:41:00,56.8,49.0,29.77,NW,304,5.0,14.0,75,0.00,,,0.00,weatherlink.com 1.10,2013-09-13 20:41:00,
2013-09-13 16:56:00,55.8,48.0,29.78,West,268,3.0,12.0,76,0.00,,,0.00,weatherlink.com 1.10,2013-09-13 20:56:00,
2013-09-13 17:11:00,56.3,48.0,29.77,WNW,297,5.0,10.0,74,0.00,,,0.00,weatherlink.com 1.10,2013-09-13 21:11:00,
2013-09-13 17:26:00,55.6,47.0,29.77,NNW,331,5.0,14.0,74,0.00,,,0.00,weatherlink.com 1.10,2013-09-13 21:26:00,
2013-09-13 17:41:00,55.2,47.0,29.78,WNW,297,8.0,11.0,74,0.00,,,0.00,weatherlink.com 1.10,2013-09-13 21:41:00,
2013-09-13 17:56:00,54.0,47.0,29.78,WNW,290,10.0,14.0,77,0.00,,,0.00,weatherlink.com 1.10,2013-09-13 21:56:00,
2013-09-13 18:11:00,54.0,47.0,29.78,WNW,294,3.0,8.0,78,0.00,,,0.00,weatherlink.com 1.10,2013-09-13 22:11:00,
2013-09-13 18:26:00,54.0,47.0,29.79,NW,316,4.0,10.0,78,0.00,,,0.00,weatherlink.com 1.10,2013-09-13 22:26:00,
2013-09-13 18:41:00,52.9,47.0,29.79,SSW,204,3.0,8.0,79,0.00,,,0.00,weatherlink.com 1.10,2013-09-13 22:41:00,
2013-09-13 18:56:00,51.8,46.0,29.80,SW,220,2.0,9.0,80,0.00,,,0.00,weatherlink.com 1.10,2013-09-13 22:56:00,
2013-09-13 19:11:00,51.1,46.0,29.80,NW,315,5.0,11.0,82,0.00,,,0.00,weatherlink.com 1.10,2013-09-13 23:11:00,
2013-09-13 19:26:00,50.7,45.0,29.80,NW,307,3.0,12.0,82,0.00,,,0.00,weatherlink.com 1.10,2013-09-13 23:26:00,
2013-09-13 19:41:00,50.2,45.0,29.80,NNW,341,6.0,11.0,83,0.00,,,0.00,weatherlink.com 1.10,2013-09-13 23:41:00,
2013-09-13 19:56:00,49.8,46.0,29.80,WNW,299,5.0,12.0,85,0.00,,,0.00,weatherlink.com 1.10,2013-09-13 23:56:00,
2013-09-13 20:11:00,49.5,46.0,29.81,WNW,298,6.0,10.0,86,0.00,,,0.00,weatherlink.com 1.10,2013-09-14 00:11:00,
2013-09-13 20:26:00,49.1,45.0,29.81,SSW,192,9.0,11.0,86,0.00,,,0.00,weatherlink.com 1.10,2013-09-14 00:26:00,
2013-09-13 20:42:00,48.7,45.0,29.82,NW,309,7.0,9.0,87,0.00,,,0.00,weatherlink.com 1.10,2013-09-14 00:42:00,
2013-09-13 20:57:00,48.4,45.0,29.82,WNW,294,7.0,9.0,88,0.00,,,0.00,weatherlink.com 1.10,2013-09-14 00:57:00,
2013-09-13 21:12:00,47.9,45.0,29.82,WNW,292,0.0,11.0,89,0.00,,,0.00,weatherlink.com 1.10,2013-09-14 01:12:00,
2013-09-13 21:27:00,47.5,45.0,29.83,SSW,213,7.0,8.0,90,0.00,,,0.00,weatherlink.com 1.10,2013-09-14 01:27:00,
2013-09-13 21:42:00,47.2,45.0,29.84,WSW,246,1.0,9.0,90,0.00,,,0.00,weatherlink.com 1.10,2013-09-14 01:42:00,
2013-09-13 21:57:00,46.9,45.0,29.84,WSW,258,1.0,5.0,91,0.00,,,0.00,weatherlink.com 1.10,2013-09-14 01:57:00,
2013-09-13 22:12:00,46.3,44.0,29.85,SW,217,1.0,7.0,92,0.00,,,0.00,weatherlink.com 1.10,2013-09-14 02:12:00,
2013-09-13 22:27:00,46.1,44.0,29.85,WSW,246,0.0,5.0,92,0.00,,,0.00,weatherlink.com 1.10,2013-09-14 02:27:00,
2013-09-13 22:42:00,46.0,44.0,29.86,SSW,207,1.0,5.0,92,0.00,,,0.00,weatherlink.com 1.10,2013-09-14 02:42:00,
2013-09-13 22:57:00,45.9,44.0,29.86,West,260,3.0,6.0,93,0.00,,,0.00,weatherlink.com 1.10,2013-09-14 02:57:00,
2013-09-13 23:12:00,45.6,44.0,29.86,West,268,3.0,14.0,93,0.00,,,0.00,weatherlink.com 1.10,2013-09-14 03:12:00,
2013-09-13 23:27:00,45.1,44.0,29.86,SW,215,3.0,6.0,94,0.00,,,0.00,weatherlink.com 1.10,2013-09-14 03:27:00,
2013-09-13 23:42:00,44.6,43.0,29.85,SW,218,6.0,14.0,95,0.00,,,0.00,weatherlink.com 1.10,2013-09-14 03:42:00,
2013-09-13 23:57:00,44.2,43.0,29.85,SW,236,5.0,11.0,96,0.00,,,0.00,weatherlink.com 1.10,2013-09-14 03:57:00,